{"data":{"norad_id":60094,"intl_designator":"2024-117D","name":"STARLINK-32007","alt_names":[],"object_type":"PAYLOAD","status":"ACTIVE","operator":null,"country":"US","launch_date":"2024-06-23","launch_site_code":"AFETR","launch_vehicle":null,"mission":null,"orbit_class":"UNKNOWN","rcs_meters":null,"size_class":null,"mass_kg":null,"dimensions":null,"purposes":["comms"],"wikipedia_slug":null,"has_3d_model":false,"image_url":null,"decayed_at":null,"tle_current":{"epoch":"2026-05-24T23:17:21.736608Z","epoch_age_seconds":87995,"freshness":"FRESH","line1":"1 60094U 24117D   26144.97039047 -.00000618  00000+0 -87520-5 0  9993","line2":"2 60094  53.1624  42.9323 0001296  91.9611 268.1538 15.30190607108565","mean_motion":15.30190607,"eccentricity":0.0001296,"inclination_deg":53.1624,"raan_deg":42.9323,"arg_perigee_deg":91.9611,"mean_anomaly_deg":268.1538,"bstar":-8.752e-6,"rev_number":10856,"period_min":94.105923367493,"perigee_km":474.35491730474,"apogee_km":476.13131343064,"semimajor_km":6853.3801153677,"source":"CELESTRAK","updated_at":"2026-05-25T13:38:19.160207Z"}}}